When you browse on this site, cookies collect data to enhance your experience and personalize the content and advertising you see.
Visit our Privacy Policy to learn more. By continuing to use the site, you agree to this use of cookies and data.
  • En España
  • Lista de países
  • Para 7 días
  • Temperatura del agua
  • El tiempo en el mapa
  • Informadores
  • user-avatar
    Iniciar sesión

    Tiempo cada hora Hrazdan

    Hoy, 6 Abril, Lunes

    Tiempo Temperatura Precipitaciones Viento Presión Humedad
    00:00 +3°C° 0 mm 3 mps 612 mmHg 73%
    01:00 +4°C° 0.2 mm 2 mps 612 mmHg 78%
    02:00 +4°C° 0.2 mm 2 mps 611 mmHg 83%
    03:00 +4°C° 0 mm 2 mps 611 mmHg 89%
    04:00 +4°C° 0 mm 2 mps 611 mmHg 87%
    05:00 +4°C° 0 mm 2 mps 610 mmHg 86%
    06:00 +4°C° 0 mm 2 mps 610 mmHg 85%
    07:00 +4°C° 0 mm 3 mps 611 mmHg 80%
    08:00 +7°C° 0 mm 3 mps 611 mmHg 74%
    09:00 +7°C° 0 mm 4 mps 612 mmHg 72%
    10:00 +6°C° 0.1 mm 4 mps 612 mmHg 75%
    11:00 +6°C° 0.1 mm 4 mps 612 mmHg 78%
    12:00 +6°C° 0.1 mm 4 mps 612 mmHg 80%
    13:00 +7°C° 0.9 mm 3 mps 611 mmHg 82%
    14:00 +7°C° 0.9 mm 2 mps 611 mmHg 84%
    15:00 +7°C° 0.9 mm 2 mps 611 mmHg 85%
    16:00 +7°C° 0.7 mm 1 mps 611 mmHg 86%
    17:00 +7°C° 0.7 mm 1 mps 611 mmHg 86%
    18:00 +7°C° 0.7 mm 1 mps 611 mmHg 86%
    19:00 +6°C° 0.1 mm 1 mps 611 mmHg 88%
    20:00 +6°C° 0.1 mm 1 mps 611 mmHg 90%
    21:00 +5°C° 0.1 mm 1 mps 611 mmHg 92%
    22:00 +5°C° 0.5 mm 1 mps 611 mmHg 93%
    23:00 +4°C° 0.5 mm 2 mps 612 mmHg 94%

    Mañana, 7 Abril, Martes

    Tiempo Temperatura Precipitaciones Viento Presión Humedad
    00:00 +4°C° 0.5 mm 2 mps 612 mmHg 95%
    01:00 +3°C° 0.4 mm 2 mps 612 mmHg 95%
    02:00 +3°C° 0.4 mm 2 mps 611 mmHg 95%
    03:00 +2°C° 0.4 mm 2 mps 611 mmHg 95%
    04:00 +1°C° 0.3 mm 3 mps 611 mmHg 94%
    05:00 +1°C° 0.3 mm 3 mps 612 mmHg 93%
    06:00 +1°C° 0.3 mm 3 mps 612 mmHg 92%
    07:00 +1°C° 0.3 mm 3 mps 612 mmHg 90%
    08:00 +1°C° 0.3 mm 3 mps 612 mmHg 87%
    09:00 0°C° 0.3 mm 4 mps 612 mmHg 84%
    10:00 0°C° 0.2 mm 4 mps 612 mmHg 82%
    11:00 0°C° 0.2 mm 4 mps 613 mmHg 79%
    12:00 +1°C° 0.2 mm 3 mps 613 mmHg 77%
    13:00 +1°C° 0.1 mm 3 mps 613 mmHg 76%
    14:00 +1°C° 0.1 mm 3 mps 612 mmHg 76%
    15:00 +1°C° 0.1 mm 3 mps 612 mmHg 75%
    16:00 0°C° 0.1 mm 3 mps 612 mmHg 77%
    17:00 -1°C° 0.1 mm 3 mps 612 mmHg 79%
    18:00 -2°C° 0.1 mm 3 mps 612 mmHg 82%
    19:00 -4°C° 0 mm 3 mps 612 mmHg 82%
    20:00 -4°C° 0 mm 3 mps 612 mmHg 83%
    21:00 -5°C° 0 mm 3 mps 613 mmHg 83%
    22:00 -5°C° 0 mm 3 mps 613 mmHg 82%
    23:00 -6°C° 0 mm 3 mps 613 mmHg 82%

    Pasado mañana, 8 Abril, Miércoles

    Tiempo Temperatura Precipitaciones Viento Presión Humedad
    00:00 -6°C° 0 mm 3 mps 613 mmHg 81%
    01:00 -6°C° 0 mm 3 mps 613 mmHg 81%
    02:00 -6°C° 0 mm 3 mps 613 mmHg 81%
    03:00 -6°C° 0 mm 2 mps 613 mmHg 81%
    04:00 -6°C° 0 mm 2 mps 614 mmHg 80%
    05:00 -6°C° 0 mm 2 mps 614 mmHg 80%
    06:00 -7°C° 0 mm 3 mps 614 mmHg 80%
    07:00 -6°C° 0 mm 3 mps 615 mmHg 76%
    08:00 -5°C° 0 mm 3 mps 615 mmHg 73%
    09:00 -4°C° 0 mm 3 mps 616 mmHg 69%
    10:00 -2°C° 0 mm 3 mps 616 mmHg 66%
    11:00 -1°C° 0 mm 3 mps 616 mmHg 64%
    12:00 0°C° 0 mm 3 mps 616 mmHg 61%
    13:00 0°C° 0 mm 3 mps 616 mmHg 62%
    14:00 +1°C° 0 mm 3 mps 615 mmHg 63%
    15:00 +2°C° 0 mm 2 mps 615 mmHg 64%
    16:00 +1°C° 0 mm 2 mps 614 mmHg 69%
    17:00 -1°C° 0 mm 2 mps 614 mmHg 74%
    18:00 -2°C° 0 mm 2 mps 614 mmHg 78%
    19:00 -3°C° 0 mm 2 mps 613 mmHg 81%
    20:00 -4°C° 0 mm 2 mps 613 mmHg 83%
    21:00 -4°C° 0 mm 2 mps 613 mmHg 86%
    22:00 -2°C° 0 mm 1 mps 613 mmHg 84%
    23:00 -2°C° 0 mm 1 mps 613 mmHg 83%

    9 Abril, Jueves

    Tiempo Temperatura Precipitaciones Viento Presión Humedad
    00:00 -3°C° 0 mm 1 mps 613 mmHg 82%
    01:00 -2°C° 0 mm 1 mps 612 mmHg 81%
    02:00 -3°C° 0 mm 0 mps 612 mmHg 81%
    03:00 -3°C° 0 mm 0 mps 611 mmHg 81%
    04:00 -3°C° 0 mm 0 mps 611 mmHg 78%
    05:00 -2°C° 0 mm 1 mps 611 mmHg 76%
    06:00 -1°C° 0 mm 1 mps 611 mmHg 73%
    07:00 0°C° 0 mm 1 mps 611 mmHg 68%
    08:00 +2°C° 0 mm 1 mps 611 mmHg 62%
    09:00 +3°C° 0 mm 2 mps 612 mmHg 57%
    10:00 +4°C° 0 mm 2 mps 612 mmHg 56%
    11:00 +5°C° 0 mm 2 mps 611 mmHg 56%
    12:00 +7°C° 0 mm 2 mps 611 mmHg 56%
    13:00 +7°C° 0 mm 2 mps 611 mmHg 58%
    14:00 +7°C° 0 mm 2 mps 611 mmHg 59%
    15:00 +9°C° 0 mm 1 mps 610 mmHg 60%
    16:00 +8°C° 0 mm 1 mps 610 mmHg 66%
    17:00 +6°C° 0 mm 1 mps 609 mmHg 73%
    18:00 +5°C° 0 mm 1 mps 609 mmHg 79%
    19:00 +4°C° 0 mm 1 mps 609 mmHg 83%
    20:00 +2°C° 0 mm 2 mps 609 mmHg 86%
    21:00 +1°C° 0 mm 2 mps 609 mmHg 90%
    22:00 +1°C° 0 mm 2 mps 609 mmHg 89%
    23:00 -1°C° 0 mm 2 mps 609 mmHg 88%

    10 Abril, Viernes

    Tiempo Temperatura Precipitaciones Viento Presión Humedad
    00:00 -1°C° 0 mm 2 mps 608 mmHg 87%
    01:00 -1°C° 0 mm 2 mps 608 mmHg 86%
    02:00 -1°C° 0 mm 2 mps 608 mmHg 86%
    03:00 -1°C° 0 mm 2 mps 607 mmHg 85%
    04:00 +1°C° 0 mm 1 mps 607 mmHg 83%
    05:00 +1°C° 0 mm 1 mps 607 mmHg 82%
    06:00 +1°C° 0 mm 1 mps 607 mmHg 80%
    07:00 +3°C° 0 mm 1 mps 608 mmHg 75%
    08:00 +5°C° 0 mm 1 mps 608 mmHg 70%
    09:00 +7°C° 0 mm 1 mps 609 mmHg 64%
    10:00 +8°C° 0 mm 1 mps 609 mmHg 64%
    11:00 +7°C° 0 mm 2 mps 609 mmHg 63%
    12:00 +8°C° 0 mm 2 mps 609 mmHg 62%
    13:00 +8°C° 0.2 mm 2 mps 608 mmHg 66%
    14:00 +7°C° 0.2 mm 2 mps 608 mmHg 70%
    15:00 +8°C° 0.2 mm 1 mps 607 mmHg 74%
    16:00 +6°C° 0.2 mm 2 mps 607 mmHg 78%
    17:00 +5°C° 0.2 mm 2 mps 607 mmHg 82%
    18:00 +4°C° 0.2 mm 2 mps 606 mmHg 86%
    19:00 +4°C° 0 mm 2 mps 607 mmHg 87%
    20:00 +3°C° 0 mm 2 mps 607 mmHg 88%
    21:00 +3°C° 0 mm 2 mps 607 mmHg 89%
    22:00 +3°C° 0 mm 2 mps 607 mmHg 89%
    23:00 +3°C° 0 mm 2 mps 607 mmHg 90%

    11 Abril, Sábado

    Tiempo Temperatura Precipitaciones Viento Presión Humedad
    00:00 +2°C° 0 mm 2 mps 607 mmHg 91%
    01:00 +2°C° 0.4 mm 2 mps 607 mmHg 92%
    02:00 +2°C° 0.4 mm 2 mps 606 mmHg 93%
    03:00 +2°C° 0.4 mm 2 mps 606 mmHg 95%
    04:00 +3°C° 0.6 mm 1 mps 606 mmHg 95%
    05:00 +2°C° 0.6 mm 1 mps 606 mmHg 95%
    06:00 +2°C° 0.6 mm 1 mps 606 mmHg 95%
    07:00 +3°C° 1 mm 1 mps 606 mmHg 95%
    08:00 +3°C° 1 mm 1 mps 606 mmHg 95%
    09:00 +3°C° 1 mm 1 mps 606 mmHg 96%
    10:00 +3°C° 1.5 mm 1 mps 606 mmHg 96%
    11:00 +3°C° 1.5 mm 1 mps 606 mmHg 97%
    12:00 +3°C° 1.5 mm 1 mps 606 mmHg 98%
    13:00 +3°C° 0.8 mm 1 mps 606 mmHg 97%
    14:00 +2°C° 0.8 mm 2 mps 606 mmHg 96%
    15:00 +2°C° 0.8 mm 2 mps 606 mmHg 95%
    16:00 +2°C° 0.4 mm 2 mps 606 mmHg 95%
    17:00 +2°C° 0.4 mm 2 mps 606 mmHg 95%
    18:00 +1°C° 0.4 mm 2 mps 606 mmHg 95%
    19:00 +1°C° 0.2 mm 2 mps 606 mmHg 94%
    20:00 -1°C° 0.2 mm 2 mps 607 mmHg 93%
    21:00 +1°C° 0.2 mm 1 mps 607 mmHg 92%
    22:00 +1°C° 0.1 mm 1 mps 607 mmHg 92%
    23:00 +1°C° 0.1 mm 1 mps 607 mmHg 91%
    Mostrar más